,,Stat6,,Stat2,,Stat8,,Stat9,,Stat10,,Wind1,,Wind1,
time,status,PA1M_AVG,status,PR1M_SUM,status,RH1M_AVG,status,SR1M_AVG,status,TA1M_AVG,status,W1dAve1m,status,W1sAve1m,
2005-06-26, 00:00:00,VALID,918.827,VALID,0,VALID,95.715,VALID,24.843,VALID,18.6766,VALID,155,VALID,0.264453,
2005-06-26, 00:01:00,VALID,918.825,VALID,0,VALID,95.6946,VALID,25.4882,VALID,18.6529,VALID,133,VALID,0.333212,
2005-06-26, 00:02:00,VALID,918.83,VALID,0,VALID,95.8256,VALID,26.558,VALID,18.6307,VALID,113,VALID,0.366616,
2005-06-26, 00:03:00,VALID,918.824,VALID,0,VALID,96.0163,VALID,28.2731,VALID,18.5985,VALID,83,VALID,0.542151,
2005-06-26, 00:04:00,VALID,918.818,VALID,0,VALID,96.174,VALID,30.6504,VALID,18.5597,VALID,73,VALID,0.668605,
2005-06-26, 00:05:00,VALID,918.818,VALID,0,VALID,96.2859,VALID,33.5032,VALID,18.5399,VALID,73,VALID,0.742014,
2005-06-26, 00:06:00,VALID,918.825,VALID,0,VALID,96.3101,VALID,36.4578,VALID,18.5397,VALID,98,VALID,1.10547,
2005-06-26, 00:07:00,VALID,918.813,VALID,0,VALID,95.9693,VALID,43.5728,VALID,18.5881,VALID,112,VALID,1.09318,
2005-06-26, 00:08:00,VALID,918.817,VALID,0,VALID,95.6514,VALID,57.2254,VALID,18.6561,VALID,117,VALID,1.04135,
2005-06-26, 00:09:00,VALID,918.818,VALID,0,VALID,95.3627,VALID,47.9708,VALID,18.7241,VALID,116,VALID,0.793713,
2005-06-26, 00:10:00,VALID,918.81,VALID,0,VALID,95.1109,VALID,45.6445,VALID,18.7887,VALID,103,VALID,0.791969,
2005-06-26, 00:11:00,VALID,918.819,VALID,0,VALID,94.9088,VALID,42.2653,VALID,18.8274,VALID,108,VALID,0.918324,
2005-06-26, 00:12:00,VALID,918.837,VALID,0,VALID,94.7854,VALID,40.4653,VALID,18.8629,VALID,119,VALID,1.04464,
2005-06-26, 00:13:00,VALID,918.865,VALID,0,VALID,94.6417,VALID,38.5295,VALID,18.8756,VALID,118,VALID,1.08957,
2005-06-26, 00:14:00,VALID,918.884,VALID,0,VALID,94.6748,VALID,37.4767,VALID,18.8949,VALID,115,VALID,0.762463,
2005-06-26, 00:15:00,VALID,918.917,VALID,0,VALID,94.779,VALID,38.088,VALID,18.8979,VALID,106,VALID,0.623547,
2005-06-26, 00:16:00,VALID,918.934,VALID,0,VALID,94.863,VALID,40.72,VALID,18.885,VALID,77,VALID,0.722202,
2005-06-26, 00:17:00,VALID,918.959,VALID,0,VALID,95.0143,VALID,44.7785,VALID,18.8594,VALID,75,VALID,0.675223,
2005-06-26, 00:18:00,VALID,918.972,VALID,0,VALID,95.1643,VALID,49.7029,VALID,18.8011,VALID,75,VALID,0.554492,
2005-06-26, 00:19:00,VALID,918.987,VALID,0,VALID,95.3246,VALID,53.9141,VALID,18.775,VALID,79,VALID,0.699777,
2005-06-26, 00:20:00,VALID,918.986,VALID,0,VALID,95.4454,VALID,57.1575,VALID,18.7787,VALID,99,VALID,0.715843,
2005-06-26, 00:21:00,VALID,919.006,VALID,0,VALID,95.5089,VALID,58.482,VALID,18.7718,VALID,103,VALID,0.527257,
2005-06-26, 00:22:00,VALID,919.003,VALID,0,VALID,95.4886,VALID,58.499,VALID,18.7748,VALID,97,VALID,0.915251,
2005-06-26, 00:23:00,VALID,919.003,VALID,0,VALID,95.5636,VALID,57.7178,VALID,18.7649,VALID,99,VALID,0.775298,
2005-06-26, 00:24:00,VALID,919.011,VALID,0,VALID,95.6717,VALID,58.0575,VALID,18.778,VALID,97,VALID,0.947493,
2005-06-26, 00:25:00,VALID,919.02,VALID,0,VALID,95.7874,VALID,59.5688,VALID,18.7686,VALID,104,VALID,1.06836,
2005-06-26, 00:26:00,VALID,919.045,VALID,0,VALID,95.9438,VALID,61.2499,VALID,18.7587,VALID,98,VALID,1.02458,
2005-06-26, 00:27:00,VALID,919.06,VALID,0,VALID,96.0735,VALID,64.9856,VALID,18.749,VALID,100,VALID,1.04161,
2005-06-26, 00:28:00,VALID,919.071,VALID,0,VALID,96.1079,VALID,78.0948,VALID,18.7236,VALID,105,VALID,1.31105,
2005-06-26, 00:29:00,VALID,919.073,VALID,0,VALID,96.146,VALID,93.4285,VALID,18.7333,VALID,104,VALID,1.35229,
2005-06-26, 00:30:00,VALID,919.094,VALID,0,VALID,96.2554,VALID,82.0174,VALID,18.7365,VALID,107,VALID,1.07404,
2005-06-26, 00:31:00,VALID,919.081,VALID,0,VALID,96.277,VALID,83.9872,VALID,18.7506,VALID,111,VALID,1.12329,
2005-06-26, 00:32:00,VALID,919.089,VALID,0,VALID,96.3037,VALID,126.507,VALID,18.7769,VALID,104,VALID,0.762277,
2005-06-26, 00:33:00,VALID,919.093,VALID,0,VALID,96.188,VALID,209.781,VALID,18.8311,VALID,113,VALID,0.782465,
2005-06-26, 00:34:00,VALID,919.087,VALID,0,VALID,96.0163,VALID,214.349,VALID,18.9376,VALID,114,VALID,0.730755,
2005-06-26, 00:35:00,VALID,919.087,VALID,0,VALID,95.4098,VALID,196.315,VALID,19.067,VALID,125,VALID,0.930804,
2005-06-26, 00:36:00,VALID,919.09,VALID,0,VALID,94.7701,VALID,213.772,VALID,19.1792,VALID,115,VALID,1.07626,
2005-06-26, 00:37:00,VALID,919.088,VALID,0,VALID,94.4522,VALID,217.813,VALID,19.3056,VALID,115,VALID,0.852653,
2005-06-26, 00:38:00,VALID,919.094,VALID,0,VALID,93.8699,VALID,221.43,VALID,19.4544,VALID,123,VALID,0.896949,
2005-06-26, 00:39:00,VALID,919.1,VALID,0,VALID,93.1209,VALID,224.521,VALID,19.5666,VALID,120,VALID,0.991616,
2005-06-26, 00:40:00,VALID,919.109,VALID,0,VALID,92.803,VALID,227.424,VALID,19.6831,VALID,127,VALID,0.897892,
2005-06-26, 00:41:00,VALID,919.117,VALID,0,VALID,92.4215,VALID,230.379,VALID,19.7894,VALID,112,VALID,1.26314,
2005-06-26, 00:42:00,VALID,919.126,VALID,0,VALID,92.0782,VALID,232.552,VALID,19.8696,VALID,123,VALID,0.935683,
2005-06-26, 00:43:00,VALID,919.131,VALID,0,VALID,91.5326,VALID,233.011,VALID,19.9799,VALID,123,VALID,1.32868,
2005-06-26, 00:44:00,VALID,919.125,VALID,0,VALID,91.4144,VALID,234.828,VALID,20.047,VALID,113,VALID,1.11254,
2005-06-26, 00:45:00,VALID,919.142,VALID,0,VALID,91.9001,VALID,239.905,VALID,20.1371,VALID,113,VALID,0.812863,
2005-06-26, 00:46:00,VALID,919.135,VALID,0,VALID,92.1595,VALID,247.513,VALID,20.2335,VALID,106,VALID,0.700707,
2005-06-26, 00:47:00,VALID,919.141,VALID,0,VALID,91.5174,VALID,251.197,VALID,20.3927,VALID,114,VALID,0.726181,
2005-06-26, 00:48:00,VALID,919.13,VALID,0,VALID,90.996,VALID,252.029,VALID,20.4985,VALID,110,VALID,0.978561,
2005-06-26, 00:49:00,VALID,919.134,VALID,0,VALID,90.6921,VALID,254.169,VALID,20.579,VALID,121,VALID,0.564098,
2005-06-26, 00:50:00,VALID,919.123,VALID,0,VALID,90.364,VALID,261.386,VALID,20.695,VALID,127,VALID,0.53683,
2005-06-26, 00:51:00,VALID,919.111,VALID,0,VALID,89.596,VALID,265.563,VALID,20.811,VALID,149,VALID,0.773996,
2005-06-26, 00:52:00,VALID,919.115,VALID,0,VALID,89.0085,VALID,271.659,VALID,20.9009,VALID,133,VALID,0.938262,
2005-06-26, 00:53:00,VALID,919.111,VALID,0,VALID,88.6219,VALID,273.952,VALID,20.9846,VALID,117,VALID,0.837754,
2005-06-26, 00:54:00,VALID,919.131,VALID,0,VALID,88.304,VALID,277.62,VALID,21.0591,VALID,115,VALID,0.723656,
2005-06-26, 00:55:00,VALID,919.144,VALID,0,VALID,87.0579,VALID,279.946,VALID,21.1299,VALID,132,VALID,1.2783,
2005-06-26, 00:56:00,VALID,919.169,VALID,0,VALID,87.2232,VALID,278.995,VALID,21.1385,VALID,118,VALID,0.967076,
2005-06-26, 00:57:00,VALID,919.182,VALID,0,VALID,86.7031,VALID,282.663,VALID,21.1942,VALID,99,VALID,0.980655,
2005-06-26, 00:58:00,VALID,919.189,VALID,0,VALID,86.2351,VALID,288.555,VALID,21.2222,VALID,106,VALID,1.5123,
2005-06-26, 00:59:00,VALID,919.21,VALID,0,VALID,87.0528,VALID,291.663,VALID,21.2031,VALID,119,VALID,1.13077,
2005-06-26, 01:00:00,VALID,919.23,VALID,0,VALID,87.3999,VALID,293.853,VALID,21.2125,VALID,151,VALID,1.16635,
2005-06-26, 01:01:00,VALID,919.225,VALID,0,VALID,86.0088,VALID,299.491,VALID,21.2268,VALID,139,VALID,1.55051,
2005-06-26, 01:02:00,VALID,919.231,VALID,0,VALID,86.5365,VALID,302.768,VALID,21.1783,VALID,137,VALID,1.33498,
2005-06-26, 01:03:00,VALID,919.231,VALID,0,VALID,86.5734,VALID,301.647,VALID,21.1329,VALID,139,VALID,1.71298,
2005-06-26, 01:04:00,VALID,919.229,VALID,0,VALID,86.7794,VALID,304.976,VALID,21.0812,VALID,143,VALID,1.62979,
2005-06-26, 01:05:00,VALID,919.229,VALID,0,VALID,87.2143,VALID,308.304,VALID,21.022,VALID,131,VALID,1.49199,
2005-06-26, 01:06:00,VALID,919.201,VALID,0,VALID,86.8697,VALID,311.479,VALID,20.9832,VALID,132,VALID,1.8085,
2005-06-26, 01:07:00,VALID,919.2,VALID,0,VALID,87.082,VALID,314.179,VALID,20.9173,VALID,135,VALID,1.72656,
2005-06-26, 01:08:00,VALID,919.186,VALID,0,VALID,87.5907,VALID,320.394,VALID,20.8945,VALID,138,VALID,1.53888,
2005-06-26, 01:09:00,VALID,919.169,VALID,0,VALID,86.8557,VALID,324.623,VALID,20.9459,VALID,138,VALID,1.35138,
2005-06-26, 01:10:00,VALID,919.171,VALID,0,VALID,85.7074,VALID,328.766,VALID,20.9846,VALID,132,VALID,1.35556,
2005-06-26, 01:11:00,VALID,919.166,VALID,0,VALID,85.9236,VALID,330.973,VALID,21.0745,VALID,135,VALID,1.35175,
2005-06-26, 01:12:00,VALID,919.172,VALID,0,VALID,84.7779,VALID,333.996,VALID,21.1617,VALID,135,VALID,1.38548,
2005-06-26, 01:13:00,VALID,919.194,VALID,0,VALID,84.4968,VALID,337.358,VALID,21.2448,VALID,137,VALID,1.57508,
2005-06-26, 01:14:00,VALID,919.217,VALID,0,VALID,85.0144,VALID,342.232,VALID,21.3323,VALID,140,VALID,1.04976,
2005-06-26, 01:15:00,VALID,919.223,VALID,0,VALID,84.1891,VALID,347.173,VALID,21.4679,VALID,145,VALID,1.28361,
2005-06-26, 01:16:00,VALID,919.215,VALID,0,VALID,84.638,VALID,349.16,VALID,21.5871,VALID,130,VALID,1.02031,
2005-06-26, 01:17:00,VALID,919.227,VALID,0,VALID,84.3125,VALID,350.298,VALID,21.7327,VALID,144,VALID,0.974382,
2005-06-26, 01:18:00,VALID,919.229,VALID,0,VALID,83.4707,VALID,353.235,VALID,21.937,VALID,150,VALID,0.720238,
2005-06-26, 01:19:00,VALID,919.225,VALID,0,VALID,83.0955,VALID,357.294,VALID,22.1316,VALID,154,VALID,0.327009,
2005-06-26, 01:20:00,VALID,919.239,VALID,0,VALID,81.1068,VALID,361.352,VALID,22.3246,VALID,133,VALID,1.09412,
2005-06-26, 01:21:00,VALID,919.258,VALID,0,VALID,81.1042,VALID,364.884,VALID,22.46,VALID,143,VALID,0.903125,
2005-06-26, 01:22:00,VALID,919.266,VALID,0,VALID,79.942,VALID,368.127,VALID,22.5696,VALID,136,VALID,1.30748,
2005-06-26, 01:23:00,VALID,919.268,VALID,0,VALID,79.5414,VALID,371.201,VALID,22.5469,VALID,133,VALID,1.503,
2005-06-26, 01:24:00,VALID,919.286,VALID,0,VALID,80.7138,VALID,371.931,VALID,22.4759,VALID,144,VALID,1.16175,
2005-06-26, 01:25:00,VALID,919.278,VALID,0,VALID,81.0063,VALID,375.022,VALID,22.4791,VALID,149,VALID,1.15417,
2005-06-26, 01:26:00,VALID,919.273,VALID,0,VALID,80.4214,VALID,381.203,VALID,22.5472,VALID,153,VALID,0.780859,
2005-06-26, 01:27:00,VALID,919.285,VALID,0,VALID,80.682,VALID,383.784,VALID,22.6535,VALID,127,VALID,0.778525,
2005-06-26, 01:28:00,VALID,919.293,VALID,0,VALID,80.9478,VALID,386.806,VALID,22.7655,VALID,139,VALID,0.267442,
2005-06-26, 01:29:00,VALID,919.298,VALID,0,VALID,79.2985,VALID,389.184,VALID,22.9464,VALID,150,VALID,0.896076,
2005-06-26, 01:30:00,VALID,919.307,VALID,0,VALID,78.9425,VALID,391.765,VALID,23.0788,VALID,135,VALID,0.625601,
2005-06-26, 01:31:00,VALID,919.334,VALID,0,VALID,78.3474,VALID,394.872,VALID,23.1593,VALID,140,VALID,1.08629,
2005-06-26, 01:32:00,VALID,919.34,VALID,0,VALID,79.1472,VALID,398.353,VALID,23.1587,VALID,149,VALID,0.794158,
2005-06-26, 01:33:00,VALID,919.351,VALID,0,VALID,77.4878,VALID,400.697,VALID,23.2136,VALID,116,VALID,0.949963,
2005-06-26, 01:34:00,VALID,919.353,VALID,0,VALID,77.2131,VALID,405.638,VALID,23.2266,VALID,103,VALID,0.941592,
2005-06-26, 01:35:00,VALID,919.366,VALID,0,VALID,79.6915,VALID,408.695,VALID,23.236,VALID,135,VALID,0.616642,
2005-06-26, 01:36:00,VALID,919.367,VALID,0,VALID,78.121,VALID,411.649,VALID,23.3655,VALID,149,VALID,0.767442,
2005-06-26, 01:37:00,VALID,919.373,VALID,0,VALID,76.885,VALID,414.315,VALID,23.5106,VALID,158,VALID,1.07393,
2005-06-26, 01:38:00,VALID,919.387,VALID,0,VALID,75.4329,VALID,417.338,VALID,23.5646,VALID,139,VALID,0.666481,
2005-06-26, 01:39:00,VALID,919.385,VALID,0,VALID,76.103,VALID,420.819,VALID,23.688,VALID,139,VALID,0.435213,
2005-06-26, 01:40:00,VALID,919.383,VALID,0,VALID,76.4361,VALID,423.621,VALID,23.8395,VALID,117,VALID,0.826527,
2005-06-26, 01:41:00,VALID,919.39,VALID,0,VALID,74.1282,VALID,426.966,VALID,23.9197,VALID,147,VALID,1.07129,
2005-06-26, 01:42:00,VALID,919.388,VALID,0,VALID,73.8433,VALID,430.023,VALID,23.9456,VALID,155,VALID,1.1713,
2005-06-26, 01:43:00,VALID,919.405,VALID,0,VALID,73.8713,VALID,433.707,VALID,23.9091,VALID,142,VALID,1.21966,
2005-06-26, 01:44:00,VALID,919.396,VALID,0,VALID,74.085,VALID,437.562,VALID,23.8122,VALID,137,VALID,1.25139,
2005-06-26, 01:45:00,VALID,919.412,VALID,0,VALID,74.5313,VALID,440.856,VALID,23.6991,VALID,135,VALID,0.842152,
2005-06-26, 01:46:00,VALID,919.423,VALID,0,VALID,75.0031,VALID,443.59,VALID,23.6598,VALID,148,VALID,0.90439,
2005-06-26, 01:47:00,VALID,919.415,VALID,0,VALID,76.3332,VALID,447.071,VALID,23.7214,VALID,80,VALID,0.230283,
2005-06-26, 01:48:00,VALID,919.422,VALID,0,VALID,76.6129,VALID,449.262,VALID,23.8924,VALID,110,VALID,0.637305,
2005-06-26, 01:49:00,VALID,919.436,VALID,0,VALID,74.3711,VALID,451.588,VALID,24.1056,VALID,129,VALID,1.02381,
2005-06-26, 01:50:01,VALID,919.436,VALID,0,VALID,72.1534,VALID,454.492,VALID,24.202,VALID,113,VALID,1.11739,
2005-06-26, 01:51:00,VALID,919.445,VALID,0,VALID,72.9863,VALID,457.124,VALID,24.1438,VALID,126,VALID,1.12798,
2005-06-26, 01:52:00,VALID,919.451,VALID,0,VALID,74.1727,VALID,459.586,VALID,24.0918,VALID,129,VALID,0.508358,
2005-06-26, 01:53:00,VALID,919.459,VALID,0,VALID,73.4085,VALID,462.082,VALID,24.1086,VALID,139,VALID,0.891667,
2005-06-26, 01:54:00,VALID,919.455,VALID,0,VALID,73.425,VALID,462.897,VALID,24.0947,VALID,140,VALID,0.728601,
2005-06-26, 01:55:01,VALID,919.453,VALID,0,VALID,72.9202,VALID,466.99,VALID,24.1076,VALID,179,VALID,0.863735,
2005-06-26, 01:56:00,VALID,919.451,VALID,0,VALID,73.2241,VALID,466.905,VALID,24.2301,VALID,165,VALID,0.904978,
2005-06-26, 01:57:00,VALID,919.458,VALID,0,VALID,71.2836,VALID,471.303,VALID,24.4272,VALID,157,VALID,0.866235,
2005-06-26, 01:58:00,VALID,919.468,VALID,0,VALID,69.3533,VALID,474.529,VALID,24.582,VALID,167,VALID,0.750849,
2005-06-26, 01:59:00,VALID,919.468,VALID,0,VALID,68.1122,VALID,480.065,VALID,24.7436,VALID,150,VALID,0.639898,
2005-06-26, 02:00:00,VALID,919.473,VALID,0,VALID,67.0975,VALID,481.797,VALID,24.8793,VALID,132,VALID,0.2625,
2005-06-26, 02:01:00,VALID,919.488,VALID,0,VALID,68.6043,VALID,483.207,VALID,25.0163,VALID,108,VALID,0.439732,
2005-06-26, 02:02:00,VALID,919.478,VALID,0,VALID,67.7409,VALID,487.672,VALID,25.1808,VALID,119,VALID,0.45379,
2005-06-26, 02:03:00,VALID,919.477,VALID,0,VALID,66.14,VALID,492.342,VALID,25.3295,VALID,116,VALID,1.01254,
2005-06-26, 02:04:00,VALID,919.476,VALID,0,VALID,66.2697,VALID,494.889,VALID,25.2839,VALID,113,VALID,0.933685,
2005-06-26, 02:05:00,VALID,919.469,VALID,0,VALID,66.655,VALID,498.336,VALID,25.1417,VALID,126,VALID,0.44186,
2005-06-26, 02:06:00,VALID,919.477,VALID,0,VALID,67.0326,VALID,501.648,VALID,25.1062,VALID,80,VALID,0.351744,
2005-06-26, 02:07:00,VALID,919.477,VALID,0,VALID,67.1,VALID,504.534,VALID,25.0635,VALID,350,VALID,0.575838,
2005-06-26, 02:08:01,VALID,919.501,VALID,0,VALID,67.7231,VALID,507.659,VALID,25.1149,VALID,103,VALID,0.690476,
2005-06-26, 02:09:01,VALID,919.51,VALID,0,VALID,66.9334,VALID,510.851,VALID,25.3117,VALID,164,VALID,0.830556,
2005-06-26, 02:10:01,VALID,919.535,VALID,0,VALID,67.2374,VALID,514.621,VALID,25.4701,VALID,122,VALID,0.578125,
2005-06-26, 02:11:00,VALID,919.548,VALID,0,VALID,67.395,VALID,519.087,VALID,25.6611,VALID,82,VALID,0.567116,
2005-06-26, 02:12:00,VALID,919.562,VALID,0,VALID,66.2633,VALID,522.738,VALID,25.8076,VALID,104,VALID,0.415777,
2005-06-26, 02:13:01,VALID,919.575,VALID,0,VALID,66.262,VALID,526.151,VALID,25.9268,VALID,64,VALID,0.463068,
2005-06-26, 02:14:00,VALID,919.588,VALID,0,VALID,65.9251,VALID,528.511,VALID,26.0626,VALID,130,VALID,0.6746,
2005-06-26, 02:15:00,VALID,919.593,VALID,0,VALID,65.3249,VALID,531.126,VALID,26.1832,VALID,173,VALID,0.691229,
2005-06-26, 02:16:00,VALID,919.589,VALID,0,VALID,64.0113,VALID,532.943,VALID,26.0765,VALID,208,VALID,0.803779,
2005-06-26, 02:17:01,VALID,919.56,VALID,0,VALID,64.5047,VALID,535.066,VALID,25.9501,VALID,204,VALID,0.337326,
2005-06-26, 02:18:00,VALID,919.542,VALID,0,VALID,64.5797,VALID,537.766,VALID,26.0658,VALID,145,VALID,0.35957,
2005-06-26, 02:19:00,VALID,919.541,VALID,0,VALID,63.9948,VALID,540.092,VALID,26.199,VALID,145,VALID,1.02617,
2005-06-26, 02:20:01,VALID,919.525,VALID,0,VALID,64.2275,VALID,541.332,VALID,26.1922,VALID,135,VALID,0.504906,
2005-06-26, 02:21:01,VALID,919.532,VALID,0,VALID,65.0527,VALID,543.268,VALID,26.199,VALID,146,VALID,1.10499,
2005-06-26, 02:22:01,VALID,919.529,VALID,0,VALID,65.3986,VALID,545.934,VALID,26.147,VALID,102,VALID,0.992898,
2005-06-26, 02:23:01,VALID,919.523,VALID,0,VALID,65.1201,VALID,548.243,VALID,25.9562,VALID,36,VALID,0.917188,
2005-06-26, 02:24:00,VALID,919.52,VALID,0,VALID,65.6161,VALID,550.519,VALID,25.8525,VALID,26,VALID,1.07637,
2005-06-26, 02:25:00,VALID,919.507,VALID,0,VALID,65.9569,VALID,553.049,VALID,25.9107,VALID,360,VALID,0.452035,
2005-06-26, 02:26:01,VALID,919.528,VALID,0,VALID,64.3254,VALID,555.46,VALID,26.0357,VALID,202,VALID,0.643403,
2005-06-26, 02:27:00,VALID,919.531,VALID,0,VALID,65.1952,VALID,557.786,VALID,26.2016,VALID,153,VALID,0.980469,
2005-06-26, 02:28:00,VALID,919.534,VALID,0,VALID,63.8702,VALID,561.794,VALID,26.2889,VALID,108,VALID,1.16533,
2005-06-26, 02:29:00,VALID,919.539,VALID,0,VALID,66.8393,VALID,563.882,VALID,26.2303,VALID,63,VALID,0.718564,
2005-06-26, 02:30:00,VALID,919.533,VALID,0,VALID,65.1138,VALID,565.988,VALID,26.1815,VALID,99,VALID,1.00055,
2005-06-26, 02:31:00,VALID,919.514,VALID,0,VALID,66.3065,VALID,568.433,VALID,26.0616,VALID,95,VALID,0.570676,
2005-06-26, 02:32:00,VALID,919.514,VALID,0,VALID,66.1807,VALID,571.422,VALID,26.048,VALID,117,VALID,0.195871,
2005-06-26, 02:33:01,VALID,919.497,VALID,0,VALID,65.2804,VALID,573.731,VALID,26.0968,VALID,161,VALID,0.810697,
2005-06-26, 02:34:00,VALID,919.5,VALID,0,VALID,65.1863,VALID,575.684,VALID,26.2032,VALID,150,VALID,0.798828,
2005-06-26, 02:35:01,VALID,919.504,VALID,0,VALID,65.7102,VALID,578.112,VALID,26.1935,VALID,133,VALID,1.45668,
2005-06-26, 02:36:00,VALID,919.503,VALID,0,VALID,67.5858,VALID,581.356,VALID,26.0063,VALID,152,VALID,1.21503,
2005-06-26, 02:37:00,VALID,919.519,VALID,0,VALID,68.6463,VALID,583.852,VALID,25.8706,VALID,153,VALID,1.07757,
2005-06-26, 02:38:00,VALID,919.512,VALID,0,VALID,67.0949,VALID,587.044,VALID,25.8153,VALID,85,VALID,1.17054,
2005-06-26, 02:39:00,VALID,919.518,VALID,0,VALID,68.172,VALID,590.067,VALID,25.676,VALID,67,VALID,1.20427,
2005-06-26, 02:40:00,VALID,919.498,VALID,0,VALID,68.8002,VALID,593.106,VALID,25.592,VALID,64,VALID,1.02415,
2005-06-26, 02:41:01,VALID,919.512,VALID,0,VALID,68.5255,VALID,596.537,VALID,25.6983,VALID,175,VALID,1.13507,
2005-06-26, 02:42:00,VALID,919.509,VALID,0,VALID,67.2348,VALID,600.391,VALID,25.8631,VALID,150,VALID,1.29106,
2005-06-26, 02:43:00,VALID,919.523,VALID,0,VALID,67.1522,VALID,605.655,VALID,25.9155,VALID,133,VALID,1.33984,
2005-06-26, 02:44:01,VALID,919.518,VALID,0,VALID,67.0759,VALID,613.636,VALID,25.8534,VALID,153,VALID,1.34524,
2005-06-26, 02:45:00,VALID,919.526,VALID,0,VALID,67.0543,VALID,621.736,VALID,25.7704,VALID,184,VALID,1.08203,
2005-06-26, 02:46:00,VALID,919.512,VALID,0,VALID,67.1827,VALID,628.342,VALID,25.7568,VALID,196,VALID,0.634266,
2005-06-26, 02:47:00,VALID,919.504,VALID,0,VALID,67.4968,VALID,633.555,VALID,25.8858,VALID,132,VALID,1.34048,
2005-06-26, 02:48:00,VALID,919.503,VALID,0,VALID,66.8165,VALID,638.258,VALID,25.9274,VALID,184,VALID,0.971701,
2005-06-26, 02:49:01,VALID,919.483,VALID,0,VALID,65.4673,VALID,598.999,VALID,26.0373,VALID,171,VALID,1.33422,
2005-06-26, 02:50:00,VALID,919.461,VALID,0,VALID,64.5187,VALID,614.434,VALID,26.1728,VALID,157,VALID,1.0798,
2005-06-26, 02:51:01,VALID,919.445,VALID,0,VALID,64.8353,VALID,603.261,VALID,26.2051,VALID,168,VALID,0.832485,
2005-06-26, 02:52:00,VALID,919.437,VALID,0,VALID,64.4462,VALID,590.322,VALID,26.1243,VALID,235,VALID,0.906064,
2005-06-26, 02:53:00,VALID,919.431,VALID,0,VALID,65.9823,VALID,406.793,VALID,25.9077,VALID,166,VALID,0.842478,
2005-06-26, 02:54:01,VALID,919.429,VALID,0,VALID,66.229,VALID,306.351,VALID,25.9139,VALID,200,VALID,1.17631,
2005-06-26, 02:55:00,VALID,919.433,VALID,0,VALID,66.2404,VALID,445.237,VALID,25.7914,VALID,187,VALID,0.841442,
2005-06-26, 02:56:00,VALID,919.432,VALID,0,VALID,65.625,VALID,673.018,VALID,25.8534,VALID,196,VALID,1.07459,
2005-06-26, 02:57:00,VALID,919.424,VALID,0,VALID,64.0533,VALID,671.575,VALID,26.0154,VALID,192,VALID,0.699609,
2005-06-26, 02:58:00,VALID,919.431,VALID,0,VALID,64.0062,VALID,677.841,VALID,26.1411,VALID,240,VALID,0.918988,
2005-06-26, 02:59:01,VALID,919.431,VALID,0,VALID,63.4327,VALID,686.977,VALID,26.0955,VALID,177,VALID,0.71548,
2005-06-26, 03:00:01,VALID,919.441,VALID,0,VALID,63.4988,VALID,707.269,VALID,26.3228,VALID,182,VALID,0.5,
2005-06-26, 03:01:00,VALID,919.461,VALID,0,VALID,63.7583,VALID,727.815,VALID,26.647,VALID,156,VALID,0.712612,
2005-06-26, 03:02:01,VALID,919.454,VALID,0,VALID,64.3241,VALID,745.458,VALID,26.8533,VALID,64,VALID,1.08937,
2005-06-26, 03:03:00,VALID,919.445,VALID,0,VALID,63.3208,VALID,703.652,VALID,26.9765,VALID,168,VALID,0.554129,
2005-06-26, 03:04:01,VALID,919.427,VALID,0,VALID,61.4872,VALID,627.662,VALID,27.1152,VALID,204,VALID,0.881114,
2005-06-26, 03:05:01,VALID,919.407,VALID,0,VALID,61.2659,VALID,610.834,VALID,27.1378,VALID,138,VALID,1.34553,
2005-06-26, 03:06:00,VALID,919.391,VALID,0,VALID,61.112,VALID,550.603,VALID,27.1342,VALID,136,VALID,1.14382,
2005-06-26, 03:07:00,VALID,919.381,VALID,0,VALID,61.8725,VALID,691.952,VALID,27.0149,VALID,117,VALID,1.11452,
2005-06-26, 03:08:00,VALID,919.383,VALID,0,VALID,62.6342,VALID,747.089,VALID,26.9014,VALID,145,VALID,1.19141,
2005-06-26, 03:09:01,VALID,919.393,VALID,0,VALID,61.7542,VALID,677.994,VALID,26.883,VALID,198,VALID,1.13839,
2005-06-26, 03:10:01,VALID,919.374,VALID,0,VALID,62.2896,VALID,627.815,VALID,26.7825,VALID,259,VALID,0.527716,
2005-06-26, 03:11:00,VALID,919.378,VALID,0,VALID,61.5813,VALID,650.111,VALID,26.8497,VALID,223,VALID,0.824673,
2005-06-26, 03:12:00,VALID,919.367,VALID,0,VALID,61.4236,VALID,716.608,VALID,26.9557,VALID,229,VALID,0.560865,
2005-06-26, 03:13:01,VALID,919.383,VALID,0,VALID,61.4121,VALID,725.031,VALID,27.2251,VALID,137,VALID,0.574558,
2005-06-26, 03:14:01,VALID,919.394,VALID,0,VALID,61.1298,VALID,623.281,VALID,27.4705,VALID,159,VALID,0.74535,
2005-06-26, 03:15:00,VALID,919.393,VALID,0,VALID,62.5566,VALID,666.43,VALID,27.5697,VALID,170,VALID,2.07955,
2005-06-26, 03:16:01,VALID,919.42,VALID,0,VALID,63.6464,VALID,641.841,VALID,27.4979,VALID,203,VALID,1.28639,
2005-06-26, 03:17:00,VALID,919.427,VALID,0,VALID,64.1207,VALID,727.629,VALID,27.3782,VALID,199,VALID,1.1875,
2005-06-26, 03:18:00,VALID,919.435,VALID,0,VALID,64.216,VALID,771.66,VALID,27.3718,VALID,191,VALID,1.13449,
2005-06-26, 03:19:01,VALID,919.441,VALID,0,VALID,63.5154,VALID,753.219,VALID,27.3452,VALID,210,VALID,1.01376,
2005-06-26, 03:20:01,VALID,919.435,VALID,0,VALID,63.4785,VALID,740.992,VALID,27.4616,VALID,145,VALID,1.06942,
2005-06-26, 03:21:00,VALID,919.424,VALID,0,VALID,64.0927,VALID,656.547,VALID,27.5421,VALID,186,VALID,1.67418,
2005-06-26, 03:22:00,VALID,919.41,VALID,0,VALID,64.8836,VALID,754.187,VALID,27.5812,VALID,193,VALID,1.08221,
2005-06-26, 03:23:01,VALID,919.391,VALID,0,VALID,62.1459,VALID,629.208,VALID,27.6265,VALID,207,VALID,1.34127,
2005-06-26, 03:24:00,VALID,919.377,VALID,0,VALID,62.7867,VALID,552.947,VALID,27.481,VALID,231,VALID,1.00454,
2005-06-26, 03:25:01,VALID,919.35,VALID,0,VALID,63.8345,VALID,717.44,VALID,27.3808,VALID,238,VALID,0.736979,
2005-06-26, 03:26:01,VALID,919.334,VALID,0,VALID,63.893,VALID,765.547,VALID,27.3843,VALID,250,VALID,1.12184,
2005-06-26, 03:27:01,VALID,919.332,VALID,0,VALID,64.333,VALID,737.698,VALID,27.3782,VALID,223,VALID,0.864644,
2005-06-26, 03:28:00,VALID,919.315,VALID,0,VALID,63.7697,VALID,735.474,VALID,27.5644,VALID,210,VALID,0.673549,
2005-06-26, 03:29:00,VALID,919.32,VALID,0,VALID,62.8376,VALID,727.663,VALID,27.5683,VALID,208,VALID,1.84648,
2005-06-26, 03:30:00,VALID,919.307,VALID,0,VALID,62.8974,VALID,726.729,VALID,27.5777,VALID,194,VALID,1.26414,
2005-06-26, 03:31:01,VALID,919.287,VALID,0,VALID,62.6087,VALID,728.07,VALID,27.7198,VALID,187,VALID,1.18288,
2005-06-26, 03:32:01,VALID,919.283,VALID,0,VALID,64.0266,VALID,725.608,VALID,27.6926,VALID,214,VALID,1.46566,
2005-06-26, 03:33:00,VALID,919.274,VALID,0,VALID,63.3984,VALID,726.117,VALID,27.68,VALID,194,VALID,1.04968,